Temperature
18 18 18 18 18 18 18 18 18 17 17 17 17 17 17 16 16 16 16 16 16 16 16 16 16 16 15 15 15 15 15 15 14 14 14 14 14 14
18 18 18 18 18 18 18 18 18 18 17 17 17 17 17 16 16 16 16 16 16 16 16 16 16 15 15 15 15 15 15 15 14 14 14 14 14 13
17 17 17 18 17 17 17 17 18 18 17 17 17 17 17 16 16 16 16 16 16 16 16 16 16 15 15 15 15 15 15 14 14 14 14 14 13 13
17 17 17 17 17 17 17 17 17 17 17 17 17 17 17 16 16 16 16 16 16 16 16 16 16 15 15 15 15 15 14 14 14 14 13 13 13 13
17 17 17 17 17 17 17 17 17 17 17 17 16 16 16 16 16 16 16 16 16 16 16 16 16 15 15 15 15 15 14 14 14 14 13 13 13 13
17 17 17 17 17 17 16 16 17 17 17 17 16 16 16 16 16 16 16 16 16 16 16 16 16 15 15 15 15 14 14 14 14 13 13 13 13 13
17 17 17 17 17 17 16 16 16 17 17 16 16 16 16 16 16 16 16 16 16 16 16 16 15 15 15 15 15 14 14 14 14 13 13 13 13 13
17 17 17 17 17 17 16 16 16 16 16 16 16 16 16 16 16 16 15 15 15 15 15 15 15 15 15 15 15 14 14 14 14 13 13 13 13 12
17 17 16 16 16 16 16 16 16 16 16 16 16 16 16 16 16 15 15 15 15 15 15 15 15 15 15 15 15 14 14 14 13 13 13 13 12 12
17 17 16 17 16 16 16 16 16 16 16 16 16 16 16 15 15 15 15 15 15 15 15 15 15 15 15 14 14 14 14 13 13 13 13 12 12 12
16 16 17 16 16 16 16 16 16 16 16 16 16 16 16 15 15 15 15 15 15 15 15 15 15 14 14 14 14 14 14 13 13 13 13 12 12 11
16 16 16 16 16 16 16 16 16 16 16 16 16 15 15 15 15 15 15 14 14 14 14 14 14 14 14 14 14 14 13 13 13 13 12 12 12 11
16 16 16 16 16 16 16 16 16 16 16 15 15 15 15 15 15 15 15 14 14 14 14 14 14 14 13 13 13 13 13 13 13 12 12 12 12 11
16 16 16 16 16 16 16 16 16 16 15 15 15 15 15 15 15 15 15 14 14 14 14 14 14 13 13 13 13 13 13 13 12 12 12 12 11 11
16 16 16 16 16 16 16 16 15 15 15 15 15 15 15 15 15 14 14 14 14 14 14 14 14 13 13 13 13 13 13 12 12 12 12 12 11 11
16 15 15 15 15 15 15 15 15 15 15 15 15 14 14 14 14 14 14 14 14 14 14 13 13 13 13 13 13 13 12 12 12 12 12 11 11 11
15 15 15 15 15 15 15 15 15 15 15 15 14 14 14 14 14 14 14 13 13 13 13 13 13 13 13 13 13 12 12 12 12 12 11 11 11 11
15 15 15 15 15 15 15 15 15 15 15 14 14 14 14 13 13 13 13 13 13 13 13 13 13 12 12 12 12 12 12 12 12 11 11 11 11 11
15 14 14 14 15 15 15 15 15 15 14 14 14 14 13 13 13 13 13 13 13 13 13 12 12 12 12 11 12 12 12 12 11 11 11 11 11 11
14 14 14 14 14 14 14 14 14 14 14 14 14 13 13 13 13 13 13 12 12 12 12 12 12 12 12 12 11 12 12 11 11 11 11 11 11 11
14 14 14 14 14 14 14 14 14 14 14 14 13 13 13 13 13 12 12 12 12 12 12 12 12 12 12 12 11 11 11 11 11 11 11 11 10 10
14 14 14 14 14 14 14 14 14 14 13 13 13 13 13 12 12 12 12 12 12 12 12 12 12 11 11 11 11 11 11 11 11 11 11 11 10 10
14 14 13 13 13 13 13 13 13 13 13 13 12 12 12 12 12 12 12 12 12 12 11 11 11 11 11 11 11 11 11 11 11 11 11 11 10 10
Wind_Speed
1 1 1 1 1 1 0 0 1 2 2 2 2 2 4 7 9 8 8 10 12 11 11 10 10 9 9 8 8 7 6 5 4 4 3 3 3 4
1 0 1 1 1 1 1 1 1 1 1 2 2 3 3 5 9 8 8 11 12 13 13 12 11 10 10 10 9 8 7 6 5 4 4 4 4 4
1 1 0 1 1 2 2 1 1 0 1 1 1 2 2 3 5 6 7 9 10 14 15 14 14 13 12 11 10 9 8 7 6 5 5 4 4 4
1 0 1 1 1 2 2 2 1 1 1 2 2 2 2 3 4 4 5 7 8 13 16 16 15 15 13 12 11 10 9 8 7 6 5 5 5 4
1 1 1 1 1 1 2 1 2 2 1 2 3 2 2 2 3 3 3 3 5 9 14 15 15 15 14 13 12 10 9 9 8 7 6 6 5 4
1 1 1 1 1 2 2 2 2 2 2 2 2 2 2 2 2 2 2 2 3 3 6 9 12 13 13 12 11 11 10 10 9 9 8 7 6 5
1 1 1 1 1 1 1 1 2 2 2 2 2 2 2 2 2 2 2 2 2 2 2 3 6 6 9 11 12 11 12 11 10 10 9 8 7 6
2 2 2 3 3 3 2 1 1 2 2 2 2 1 2 2 2 2 2 1 1 1 1 2 3 4 6 8 12 14 13 12 11 10 9 8 8 8
3 3 4 3 3 3 3 4 3 4 4 4 3 3 2 2 2 2 2 3 3 2 2 3 2 2 4 7 13 15 14 13 12 11 9 9 9 9
4 4 3 2 2 2 3 3 3 3 4 4 3 4 3 2 2 3 4 4 3 3 2 3 2 2 2 4 12 14 15 14 13 12 11 10 9 10
5 4 3 3 2 2 3 4 3 3 4 4 5 5 4 4 3 2 3 3 3 3 3 2 2 2 2 2 7 13 14 14 13 12 11 10 10 9
4 3 4 3 4 3 4 4 5 5 3 3 4 5 6 6 7 5 4 4 3 3 2 2 2 1 2 2 3 7 9 11 13 12 11 11 10 7
3 3 3 4 4 4 5 6 6 4 4 4 4 5 5 5 5 6 6 5 4 4 2 1 2 2 2 2 1 4 6 6 7 9 11 12 12 9
4 2 2 5 5 7 6 7 6 5 5 5 5 5 5 5 4 5 7 7 6 5 4 3 2 2 2 2 2 2 3 5 5 5 7 10 12 13
3 2 3 5 5 5 7 7 6 5 5 6 5 5 4 4 3 3 5 6 6 7 6 6 4 4 3 4 3 3 2 3 4 4 4 5 6 6
4 3 4 6 6 5 4 5 5 6 5 5 4 4 3 2 3 3 3 3 3 4 5 6 5 4 4 4 3 4 3 3 3 3 4 4 5 6
3 2 3 3 4 4 5 5 5 5 5 5 4 3 3 3 3 2 2 3 3 3 3 3 4 5 4 3 4 4 4 3 3 4 4 4 4 5
3 4 5 5 6 5 6 5 5 5 5 5 5 4 4 4 3 3 2 3 4 4 3 3 3 2 2 3 5 5 3 3 3 4 4 4 4 4
4 6 6 6 6 6 5 5 5 5 5 5 5 5 4 4 3 3 3 3 4 4 4 3 3 4 5 5 4 5 4 4 3 4 4 4 4 4
6 7 7 6 5 5 5 5 4 3 3 4 4 4 4 4 4 4 4 5 4 4 3 4 4 4 5 5 3 4 6 4 4 4 4 3 3 3
7 7 7 6 6 4 4 3 3 3 3 3 3 4 4 4 4 4 4 5 5 4 5 5 5 5 3 2 3 3 3 5 6 4 4 4 4 4
7 6 6 5 4 4 3 3 3 3 3 3 3 3 4 4 5 5 5 4 4 5 6 4 4 4 3 4 5 4 3 3 4 6 5 5 4 4
6 6 5 4 4 3 3 3 3 3 3 3 3 4 4 4 4 5 5 5 4 4 4 4 3 3 4 4 5 4 5 4 3 2 3 5 6 5
Wind_Direction
253 290 307 319 328 307 308 163 205 209 197 190 170 157 138 138 162 175 175 190 194 195 198 199 199 198 198 198 199 202 205 211 222 235 243 256 264 266
215 37 313 321 328 340 321 289 277 222 200 180 177 153 152 163 172 183 187 189 196 197 200 200 202 204 205 205 205 206 208 211 219 231 236 247 261 269
223 158 221 327 327 311 303 300 322 317 182 168 158 153 155 150 166 191 189 185 197 206 205 206 206 207 209 210 211 211 212 212 214 223 234 245 255 265
224 202 248 246 304 312 303 311 295 273 177 192 184 171 186 173 177 207 207 204 199 205 205 209 209 208 209 211 212 212 212 211 212 220 230 239 249 257
216 212 212 213 243 282 288 289 280 260 220 211 208 191 190 194 187 220 231 229 220 195 201 208 209 207 208 210 210 209 211 212 212 217 224 230 237 244
219 211 205 211 226 258 254 269 271 272 243 237 219 203 201 199 188 220 236 238 243 206 197 205 207 207 208 207 205 207 209 209 210 212 216 219 220 223
219 213 200 151 124 248 258 266 266 260 250 240 236 217 213 196 214 237 237 233 222 217 185 204 189 196 202 209 208 208 205 204 206 209 212 214 216 219
218 212 204 199 198 195 199 207 253 244 253 259 259 240 228 216 221 247 251 257 258 220 215 239 179 192 198 195 199 199 200 201 203 207 210 214 218 222
216 232 247 232 200 207 213 219 233 237 231 242 253 262 257 255 250 265 270 259 254 244 231 250 217 210 198 195 192 194 195 197 200 205 210 216 221 224
221 229 237 241 245 228 245 235 231 246 239 231 239 254 250 252 245 250 262 262 253 242 216 240 236 236 229 186 189 188 192 194 197 202 207 214 221 226
233 234 227 216 221 220 246 257 250 252 247 229 220 229 229 237 240 261 263 257 262 244 218 221 237 241 232 194 196 195 194 196 198 202 207 213 220 226
239 226 222 215 216 226 232 244 248 247 249 248 239 239 231 231 226 222 237 252 266 256 235 225 231 220 254 226 185 191 201 206 205 207 211 214 215 216
252 238 212 187 211 241 245 246 242 241 244 241 239 233 227 222 214 216 219 228 244 250 234 207 231 230 231 255 212 191 189 189 199 211 214 215 213 207
270 270 221 205 226 240 246 245 244 245 246 247 245 237 228 222 217 210 212 215 220 234 244 229 235 239 248 257 251 221 200 185 182 195 201 208 214 220
282 292 251 233 243 250 246 242 243 246 246 245 249 248 238 220 213 212 208 212 223 236 236 230 224 227 233 239 241 237 228 206 186 186 189 192 199 204
262 262 239 237 246 248 251 242 234 242 246 250 252 249 235 221 221 228 230 217 226 233 226 219 220 221 235 242 238 242 229 209 196 192 187 198 204 205
227 246 250 244 238 233 233 232 230 230 236 246 257 263 252 239 235 217 225 238 240 243 232 226 217 221 226 230 236 235 230 217 198 192 193 205 210 204
204 241 246 245 242 241 237 231 226 230 231 226 233 238 236 237 237 227 216 237 251 249 239 225 209 209 234 247 231 236 234 228 218 210 207 212 221 215
218 245 247 246 244 246 247 241 231 224 222 226 229 231 229 232 234 234 234 240 248 247 234 222 213 210 226 242 237 223 227 231 219 219 219 223 227 218
233 245 250 249 244 245 248 246 239 225 219 227 231 229 228 232 235 234 234 238 246 250 242 227 222 219 226 239 239 239 225 224 216 223 226 226 228 212
244 247 250 252 254 248 242 244 240 230 228 236 245 236 230 233 241 243 243 240 243 249 247 237 229 224 221 221 234 243 238 229 226 220 218 214 221 222
249 254 258 256 256 257 251 248 245 238 229 239 252 249 244 241 240 241 244 241 241 252 257 239 207 210 216 223 235 239 246 242 245 246 243 232 217 218
248 255 258 259 258 260 254 253 255 249 239 244 255 260 257 251 248 245 243 244 244 249 261 254 222 220 230 230 236 240 237 229 227 237 263 257 236 227
Height
1530 1531 1531 1532 1532 1533 1533 1533 1533 1533 1533 1533 1534 1534 1534 1534 1533 1534 1534 1534 1534 1534 1535 1535 1535 1535 1535 1535 1535 1535 1536 1536 1536 1536 1535 1535 1535 1535
1529 1529 1530 1530 1531 1531 1531 1531 1532 1532 1531 1532 1532 1532 1532 1532 1532 1532 1532 1532 1532 1533 1533 1533 1533 1533 1533 1533 1533 1533 1533 1533 1533 1533 1533 1533 1533 1532
1527 1528 1528 1529 1529 1529 1530 1530 1530 1530 1530 1530 1530 1530 1531 1531 1530 1530 1530 1530 1530 1530 1531 1531 1531 1531 1530 1531 1531 1531 1531 1530 1530 1530 1530 1530 1530 1529
1526 1526 1526 1527 1527 1528 1528 1528 1528 1528 1529 1528 1529 1529 1529 1529 1528 1528 1528 1528 1528 1528 1528 1528 1528 1528 1528 1528 1528 1528 1528 1528 1527 1527 1527 1527 1527 1527
1524 1525 1525 1525 1525 1525 1526 1526 1526 1527 1527 1527 1527 1527 1527 1527 1526 1526 1526 1526 1526 1525 1525 1526 1525 1525 1525 1525 1525 1525 1525 1525 1525 1524 1524 1524 1524 1524
1522 1522 1523 1523 1523 1523 1524 1524 1524 1524 1524 1525 1525 1525 1525 1524 1524 1524 1524 1524 1524 1523 1523 1523 1523 1523 1522 1522 1522 1522 1522 1522 1521 1521 1521 1521 1520 1520
1520 1521 1521 1521 1521 1521 1521 1521 1522 1522 1522 1522 1522 1522 1522 1522 1522 1522 1521 1521 1521 1521 1521 1520 1520 1519 1519 1519 1519 1519 1519 1518 1518 1517 1517 1517 1517 1517
1518 1518 1519 1518 1518 1518 1518 1519 1519 1519 1519 1519 1519 1519 1519 1519 1519 1519 1519 1519 1518 1519 1519 1518 1517 1516 1516 1516 1516 1516 1516 1515 1514 1514 1513 1513 1513 1513
1516 1516 1516 1516 1516 1516 1515 1516 1516 1516 1516 1517 1516 1516 1516 1516 1516 1516 1516 1516 1516 1516 1516 1515 1515 1514 1513 1513 1513 1513 1513 1512 1511 1510 1510 1510 1509 1509
1513 1513 1513 1513 1513 1513 1513 1512 1512 1512 1513 1513 1513 1513 1513 1513 1513 1513 1513 1513 1512 1512 1512 1512 1511 1510 1510 1509 1509 1509 1509 1508 1507 1507 1506 1506 1506 1506
1510 1510 1510 1510 1510 1510 1510 1509 1509 1509 1509 1510 1510 1510 1510 1510 1510 1510 1509 1509 1508 1508 1508 1508 1507 1506 1506 1506 1506 1505 1505 1505 1505 1504 1503 1503 1503 1502
1507 1507 1507 1507 1507 1507 1506 1506 1505 1505 1506 1506 1506 1506 1506 1506 1506 1506 1506 1505 1505 1504 1504 1504 1503 1503 1502 1502 1502 1502 1502 1502 1502 1501 1501 1500 1500 1499
1503 1503 1503 1503 1503 1503 1503 1502 1502 1502 1502 1502 1502 1502 1502 1502 1502 1502 1502 1501 1501 1500 1501 1501 1500 1500 1500 1499 1498 1499 1499 1498 1498 1498 1498 1497 1497 1497
1501 1501 1500 1500 1500 1499 1499 1499 1498 1498 1498 1498 1498 1498 1497 1497 1497 1497 1497 1497 1496 1496 1497 1497 1496 1496 1496 1495 1495 1495 1495 1495 1495 1494 1494 1494 1494 1494
1497 1497 1497 1497 1496 1496 1495 1495 1495 1494 1494 1494 1494 1494 1494 1494 1494 1493 1493 1492 1492 1492 1492 1492 1492 1491 1492 1492 1491 1491 1491 1491 1491 1491 1491 1491 1491 1490
1493 1493 1493 1492 1492 1492 1491 1491 1491 1490 1490 1490 1490 1490 1490 1490 1489 1489 1488 1488 1487 1486 1486 1487 1487 1487 1487 1487 1487 1487 1487 1487 1487 1487 1487 1487 1487 1487
1489 1488 1488 1488 1487 1487 1487 1486 1486 1486 1486 1485 1486 1486 1485 1485 1485 1485 1484 1484 1483 1482 1482 1482 1482 1482 1482 1483 1482 1482 1483 1483 1483 1483 1483 1483 1483 1483
1484 1484 1483 1483 1483 1482 1482 1482 1481 1481 1481 1481 1481 1481 1481 1480 1480 1480 1480 1479 1478 1478 1478 1478 1478 1478 1478 1478 1479 1478 1478 1478 1478 1479 1479 1478 1478 1479
1479 1479 1479 1478 1478 1478 1478 1477 1477 1476 1476 1476 1476 1476 1476 1476 1476 1475 1475 1475 1474 1474 1474 1474 1474 1473 1473 1473 1473 1474 1474 1473 1474 1474 1474 1474 1474 1474
1474 1474 1474 1473 1473 1473 1473 1473 1472 1472 1471 1471 1471 1471 1471 1471 1471 1470 1471 1470 1470 1470 1469 1469 1469 1469 1468 1469 1469 1469 1470 1469 1469 1469 1469 1469 1470 1470
1469 1469 1469 1469 1468 1468 1468 1468 1468 1467 1466 1466 1466 1466 1466 1466 1465 1466 1465 1465 1465 1465 1464 1464 1464 1465 1465 1465 1465 1464 1465 1465 1465 1465 1465 1465 1465 1465
1464 1464 1464 1464 1463 1463 1463 1463 1462 1462 1461 1461 1461 1461 1461 1460 1460 1460 1460 1460 1459 1459 1459 1459 1460 1460 1460 1460 1459 1459 1459 1460 1460 1461 1461 1461 1461 1460
1459 1459 1459 1459 1458 1458 1457 1457 1457 1456 1456 1456 1456 1456 1456 1456 1455 1456 1456 1455 1455 1454 1455 1454 1455 1455 1455 1455 1454 1454 1454 1455 1455 1455 1456 1456 1457 1457